Address 0x69eeb6f4f9182d8fbfdfc9c2994fdda6c07cc09b

 
Ad
Ad
Txn Hash Method
Block
From
To
Value [Txn Fee]
0xd13c9cf113d9f45fbe8660b5e4f7b4a3eef0b503adb7979b0cfb1f877103149cList For Sale220603932021-12-02 19:20:173 days 1 hr ago0x69eeb6f4f9182d8fbfdfc9c2994fdda6c07cc09bOUT 0x4599b5b390eebe3cc8f69b334a4d7e013aa6fe0f0 MATIC0.17913015142
0x9e353d080a1837c5fe9dc1111b05da90216d23c717b4b100ce29e222fb6e731cList For Sale220603752021-12-02 19:19:413 days 1 hr ago0x69eeb6f4f9182d8fbfdfc9c2994fdda6c07cc09bOUT 0x4599b5b390eebe3cc8f69b334a4d7e013aa6fe0f0 MATIC0.1294969096
0x5e3274d65cb08ec54233a448eb307905f13ca8b218bcd963f20911c8e6980bfbList For Sale220602992021-12-02 19:17:043 days 1 hr ago0x69eeb6f4f9182d8fbfdfc9c2994fdda6c07cc09bOUT 0x4599b5b390eebe3cc8f69b334a4d7e013aa6fe0f0 MATIC0.1295662306
0xde5dc9bcdece946641cd7c9d4220f7ba40b1ab9ab059b8b3cc1617fe7c5a1da4List For Sale220602922021-12-02 19:16:503 days 1 hr ago0x69eeb6f4f9182d8fbfdfc9c2994fdda6c07cc09bOUT 0x4599b5b390eebe3cc8f69b334a4d7e013aa6fe0f0 MATIC0.04441188507
0xd1f4b286187ec504fbea0e989904e4ad66adcd90595afe7b76eb20d5033635ddList For Sale220588092021-12-02 18:23:353 days 2 hrs ago0x69eeb6f4f9182d8fbfdfc9c2994fdda6c07cc09bOUT 0x4599b5b390eebe3cc8f69b334a4d7e013aa6fe0f0 MATIC0.17720896942
0xdbbb06130b7a1ee36b43073f0ffaf35f03589a345d6103f447ce683c20284950List For Sale220588052021-12-02 18:23:273 days 2 hrs ago0x69eeb6f4f9182d8fbfdfc9c2994fdda6c07cc09bOUT 0x4599b5b390eebe3cc8f69b334a4d7e013aa6fe0f0 MATIC0.17656857542
0x5da227f75a7d89090d3b276c63c1226183cfb4b35ef0a5670006b723f53b1a65List For Sale220588012021-12-02 18:23:193 days 2 hrs ago0x69eeb6f4f9182d8fbfdfc9c2994fdda6c07cc09bOUT 0x4599b5b390eebe3cc8f69b334a4d7e013aa6fe0f0 MATIC0.1781503486
0x5d5c9203a6b643f24dc388055a18f3c0ff04b14a4cc4b1560506b05ca877343cList For Sale220587982021-12-02 18:23:133 days 2 hrs ago0x69eeb6f4f9182d8fbfdfc9c2994fdda6c07cc09bOUT 0x4599b5b390eebe3cc8f69b334a4d7e013aa6fe0f0 MATIC0.17816956042
0x7b5c856254e0befba366d46bc2723a1987ad5e095971164334898822c343f1daList For Sale220587962021-12-02 18:23:093 days 2 hrs ago0x69eeb6f4f9182d8fbfdfc9c2994fdda6c07cc09bOUT 0x4599b5b390eebe3cc8f69b334a4d7e013aa6fe0f0 MATIC0.17784936342
0x201e02e7a601a3a1b124c7a0f825f4cb0f5cce58cf3aed43cfc40de92f65903cList For Sale220587952021-12-02 18:23:073 days 2 hrs ago0x69eeb6f4f9182d8fbfdfc9c2994fdda6c07cc09bOUT 0x4599b5b390eebe3cc8f69b334a4d7e013aa6fe0f0 MATIC0.17688877242
0x737793143c57c70a1370d4d9289fb21ed99d6a20ee497edfd8dfc07956ad5c39List For Sale220587932021-12-02 18:23:033 days 2 hrs ago0x69eeb6f4f9182d8fbfdfc9c2994fdda6c07cc09bOUT 0x4599b5b390eebe3cc8f69b334a4d7e013aa6fe0f0 MATIC0.17913015142
0xe0e114ea39e87287ef3c7a3641995f0550dbc0cf6e235bf9bfeb9fee7d1d9315List For Sale220587922021-12-02 18:23:013 days 2 hrs ago0x69eeb6f4f9182d8fbfdfc9c2994fdda6c07cc09bOUT 0x4599b5b390eebe3cc8f69b334a4d7e013aa6fe0f0 MATIC0.17913015142
0x03f9ac7d1f2e08f6fc02e0579d231a5e0d61d87b875c744e82b0e5ad014734c5List For Sale220587812021-12-02 18:22:393 days 2 hrs ago0x69eeb6f4f9182d8fbfdfc9c2994fdda6c07cc09bOUT 0x4599b5b390eebe3cc8f69b334a4d7e013aa6fe0f0 MATIC0.17913015142
0x2091c027dfed572f5bf32b409e46fa7081095c2054cef9ba9f3874b3ee474373List For Sale220587802021-12-02 18:22:373 days 2 hrs ago0x69eeb6f4f9182d8fbfdfc9c2994fdda6c07cc09bOUT 0x4599b5b390eebe3cc8f69b334a4d7e013aa6fe0f0 MATIC0.1755887726
0xf6c3a99f2659506fcc3d204d77e4b827610ed70e01e8f780bd5d7f7411da0156List For Sale220587762021-12-02 18:22:293 days 2 hrs ago0x69eeb6f4f9182d8fbfdfc9c2994fdda6c07cc09bOUT 0x4599b5b390eebe3cc8f69b334a4d7e013aa6fe0f0 MATIC0.17913015142
0x6a298bb1c75f63be31847bebdff07deb43b20287f6a1fb36cb187e75e270cdf5List For Sale220587732021-12-02 18:22:233 days 2 hrs ago0x69eeb6f4f9182d8fbfdfc9c2994fdda6c07cc09bOUT 0x4599b5b390eebe3cc8f69b334a4d7e013aa6fe0f0 MATIC0.17913015142
0x048dbe7b87600314f066cd32168ef644c35a33bd0b7b35b4816a870bf88a3397List For Sale220587692021-12-02 18:22:153 days 2 hrs ago0x69eeb6f4f9182d8fbfdfc9c2994fdda6c07cc09bOUT 0x4599b5b390eebe3cc8f69b334a4d7e013aa6fe0f0 MATIC0.17913015142
0x593047234d03349db9ed44df0a772dc1f36670fe2cf34f0cbd9a6c07cf3f50bdList For Sale220587682021-12-02 18:22:133 days 2 hrs ago0x69eeb6f4f9182d8fbfdfc9c2994fdda6c07cc09bOUT 0x4599b5b390eebe3cc8f69b334a4d7e013aa6fe0f0 MATIC0.17913015142
0x71addbe0b4b765b381037d735fef098a88b9169cdd0321a357e684a56adccb20List For Sale220587652021-12-02 18:22:073 days 2 hrs ago0x69eeb6f4f9182d8fbfdfc9c2994fdda6c07cc09bOUT 0x4599b5b390eebe3cc8f69b334a4d7e013aa6fe0f0 MATIC0.17913015142
0x7ae69a6b6fe9968199b704e77776acd481391a0bf23ff4ce54949b50fe0878c3List For Sale220587562021-12-02 18:21:493 days 2 hrs ago0x69eeb6f4f9182d8fbfdfc9c2994fdda6c07cc09bOUT 0x4599b5b390eebe3cc8f69b334a4d7e013aa6fe0f0 MATIC0.17913015142
0xe34825aa54dd3dd6442d622a9dabde871704a6fd332a3b2fcad0bf07f98d21c1List For Sale220587552021-12-02 18:21:473 days 2 hrs ago0x69eeb6f4f9182d8fbfdfc9c2994fdda6c07cc09bOUT 0x4599b5b390eebe3cc8f69b334a4d7e013aa6fe0f0 MATIC0.17913054754
0xabeed6ef2ccd53c0f21ae860cc0b5bbce21bd3279c7a216c2a1d43d25d5f1112List For Sale220587542021-12-02 18:21:453 days 2 hrs ago0x69eeb6f4f9182d8fbfdfc9c2994fdda6c07cc09bOUT 0x4599b5b390eebe3cc8f69b334a4d7e013aa6fe0f0 MATIC0.17913054754
0xb092b8b5f7b3f34f9995c9636685c9fd766c28ea29eabe591d7fb36b6b3aa4d9List For Sale220587532021-12-02 18:21:433 days 2 hrs ago0x69eeb6f4f9182d8fbfdfc9c2994fdda6c07cc09bOUT 0x4599b5b390eebe3cc8f69b334a4d7e013aa6fe0f0 MATIC0.17913054754
0xc5eb910ad76744188387f32c4af1703d82dca2833b11a6f093c57189ccd40619List For Sale220587452021-12-02 18:21:233 days 2 hrs ago0x69eeb6f4f9182d8fbfdfc9c2994fdda6c07cc09bOUT 0x4599b5b390eebe3cc8f69b334a4d7e013aa6fe0f0 MATIC0.17913054754
0xa08a511810689231e7cfbe444bd6b24a6f251a678f8b71a2b127344df0f1b1e9List For Sale220587352021-12-02 18:21:033 days 2 hrs ago0x69eeb6f4f9182d8fbfdfc9c2994fdda6c07cc09bOUT 0x4599b5b390eebe3cc8f69b334a4d7e013aa6fe0f0 MATIC0.17592857754
[ Download CSV Export 
Parent Txn Hash Block From To Value
Loading

Contract Name:
0 MATIC

Compiler Version
0

Optimization Enabled:
0 MATIC

Other Settings:
-NA-
Block Transaction Gas Used Reward
Age Block Fee Address BC Fee Address Voting Power Jailed Incoming
Block Uncle Number Difficulty Gas Used Reward
Loading
Loading
Make sure to use the "Vote Down" button for any spammy posts, and the "Vote Up" for interesting conversations.